Port Huron, MI

6:06 AM EDT on June 27, 2017 (GMT -0400)
Saint Clair County International

Weather History for KPHN - August, 2013

Change the Weather History Date:

Sunday, August 4, 2013

  Actual Average (KMTC) Record (KMTC)
Temperature  
Mean Temperature 58 °F -  
Max Temperature 68 °F 79 °F 96 °F (1955)
Min Temperature 48 °F 61 °F 46 °F (1978)
Degree Days  
Heating Degree Days 7    
Growing Degree Days 8 (Base 50)    
Moisture  
Dew Point 55 °F    
Average Humidity 84    
Maximum Humidity 100    
Minimum Humidity 56    
Precipitation  
Precipitation 0.00 in - - ()
Sea Level Pressure  
Sea Level Pressure 30.12 in    
Wind  
Wind Speed 4 mph (NNW)    
Max Wind Speed 13 mph    
Max Gust Speed 20 mph    
Visibility 10 miles    
Events      
Averages and records for this station are not official NWS values.
T = Trace of Precipitation, MM = Missing Value Source: NWS Daily Summary

Daily Weather History Graph

Daily Weather History Graph

Search for Another Location

Airport or City:

Trip Planner

Search our weather history database for the weather conditions in past years. The results will help you decide how hot, cold, wet, or windy it might be!

Date:

Astronomy

Aug. 04, 2013 Rise Set
Actual Time 6:24 AM EDT 8:47 PM EDT
Civil Twilight 5:52 AM EDT 9:18 PM EDT
Nautical Twilight 5:13 AM EDT 9:58 PM EDT
Astronomical Twilight 4:29 AM EDT 10:41 PM EDT
Moon 4:23 AM EDT (8/4) 7:09 PM EDT (8/4)
Length of Visible Light 15h 25m
Length of Day
14h 22m
Waning Crescent, 5% of the Moon is Illuminated
Aug 4
Waning Crescent
Aug 6
New
Aug 14
First Quarter
Aug 20
Full
Aug 28
Last Quarter

Hourly Weather History & Observations

Time (EDT) Temp. Dew Point Humidity Pressure Visibility Wind Dir Wind Speed Gust Speed Precip Events Conditions
12:16 AM 57.2 °F 57.2 °F 100% 30.05 in 10.0 mi NW 3.5 mph - N/A   Clear
12:36 AM 57.2 °F 57.2 °F 100% 30.06 in 10.0 mi WNW 3.5 mph - N/A   Mostly Cloudy
12:56 AM 57.2 °F 57.2 °F 100% 30.06 in 10.0 mi Calm Calm - N/A   Overcast
1:16 AM 57.2 °F 57.2 °F 100% 30.06 in 10.0 mi Calm Calm - N/A   Overcast
1:31 AM 59.0 °F 59.0 °F 100% 30.06 in 10.0 mi Calm Calm - N/A   Overcast
1:56 AM 59.0 °F 59.0 °F 100% 30.06 in 10.0 mi WNW 3.5 mph - N/A   Overcast
2:12 AM 59.0 °F 59.0 °F 100% 30.06 in 10.0 mi Calm Calm - N/A   Overcast
2:36 AM 59.0 °F 57.2 °F 94% 30.06 in 10.0 mi NW 3.5 mph - N/A   Overcast
2:55 AM 59.0 °F 57.2 °F 94% 30.06 in 10.0 mi NW 3.5 mph - N/A   Mostly Cloudy
3:12 AM 59.0 °F 55.4 °F 88% 30.06 in 10.0 mi Calm Calm - N/A   Scattered Clouds
3:36 AM 57.2 °F 55.4 °F 94% 30.07 in 10.0 mi WNW 3.5 mph - N/A   Clear
3:56 AM 55.4 °F 55.4 °F 100% 30.07 in 10.0 mi NW 3.5 mph - N/A   Clear
4:12 AM 55.4 °F 53.6 °F 94% 30.07 in 10.0 mi NNW 3.5 mph - N/A   Clear
4:30 AM 55.4 °F 53.6 °F 94% 30.08 in 10.0 mi WNW 3.5 mph - N/A   Clear
4:56 AM 53.6 °F 53.6 °F 100% 30.09 in 7.0 mi Calm Calm - N/A   Clear
5:16 AM 53.6 °F 53.6 °F 100% 30.09 in 10.0 mi NW 3.5 mph - N/A   Clear
5:36 AM 53.6 °F 53.6 °F 100% 30.09 in 10.0 mi NW 3.5 mph - N/A   Clear
5:56 AM 53.6 °F 51.8 °F 94% 30.08 in 10.0 mi Calm Calm - N/A   Clear
6:16 AM 53.6 °F 51.8 °F 94% 30.09 in 10.0 mi Calm Calm - N/A   Clear
6:36 AM 53.6 °F 51.8 °F 94% 30.09 in 10.0 mi Calm Calm - N/A   Clear
6:56 AM 51.8 °F 51.8 °F 100% 30.09 in 10.0 mi Calm Calm - N/A   Clear
7:16 AM 53.6 °F 53.6 °F 100% 30.09 in 10.0 mi NW 3.5 mph - N/A   Clear
7:36 AM 55.4 °F 53.6 °F 94% 30.09 in 10.0 mi WNW 5.8 mph - N/A   Clear
7:56 AM 55.4 °F 53.6 °F 94% 30.10 in 10.0 mi WNW 6.9 mph - N/A   Clear
8:16 AM 57.2 °F 53.6 °F 88% 30.11 in 10.0 mi NNW 6.9 mph - N/A   Clear
8:36 AM 59.0 °F 55.4 °F 88% 30.11 in 10.0 mi NW 9.2 mph - N/A   Clear
8:56 AM 60.8 °F 55.4 °F 82% 30.11 in 10.0 mi NW 9.2 mph - N/A   Clear
9:16 AM 60.8 °F 55.4 °F 82% 30.12 in 10.0 mi NW 10.4 mph - N/A   Clear
9:36 AM 62.6 °F 57.2 °F 82% 30.12 in 10.0 mi NW 6.9 mph - N/A   Clear
9:56 AM 62.6 °F 57.2 °F 82% 30.12 in 10.0 mi WNW 10.4 mph - N/A   Clear
10:16 AM 64.4 °F 57.2 °F 77% 30.13 in 10.0 mi WNW 9.2 mph - N/A   Clear
10:36 AM 64.4 °F 57.2 °F 77% 30.13 in 10.0 mi WNW 8.1 mph - N/A   Scattered Clouds
10:56 AM 64.4 °F 57.2 °F 77% 30.14 in 10.0 mi North 5.8 mph - N/A   Overcast
11:16 AM 64.4 °F 57.2 °F 77% 30.14 in 10.0 mi North 5.8 mph - N/A   Overcast
11:36 AM 66.2 °F 57.2 °F 73% 30.14 in 10.0 mi NNW 9.2 mph - N/A   Mostly Cloudy
11:56 AM 68.0 °F 57.2 °F 68% 30.14 in 10.0 mi WNW 8.1 mph - N/A   Mostly Cloudy
12:16 PM 68.0 °F 59.0 °F 73% 30.15 in 10.0 mi WNW 4.6 mph - N/A   Mostly Cloudy
12:36 PM 66.2 °F 57.2 °F 73% 30.15 in 10.0 mi North 5.8 mph - N/A   Mostly Cloudy
12:56 PM 68.0 °F 59.0 °F 73% 30.14 in 10.0 mi NNE 6.9 mph - N/A   Mostly Cloudy
1:16 PM 66.2 °F 59.0 °F 78% 30.14 in 10.0 mi NNW 4.6 mph - N/A   Overcast
1:36 PM 66.2 °F 59.0 °F 78% 30.15 in 10.0 mi NE 6.9 mph - N/A   Overcast
1:56 PM 66.2 °F 59.0 °F 78% 30.14 in 10.0 mi North 9.2 mph - N/A   Overcast
2:16 PM 66.2 °F 59.0 °F 78% 30.14 in 10.0 mi NNE 9.2 mph 16.1 mph N/A   Overcast
2:36 PM 68.0 °F 59.0 °F 73% 30.13 in 10.0 mi NNE 11.5 mph 18.4 mph N/A   Mostly Cloudy
2:56 PM 66.2 °F 59.0 °F 78% 30.14 in 10.0 mi NNE 8.1 mph - N/A   Overcast
3:16 PM 68.0 °F 59.0 °F 73% 30.14 in 10.0 mi NNE 11.5 mph - N/A   Overcast
3:36 PM 66.2 °F 59.0 °F 78% 30.15 in 10.0 mi North 9.2 mph - N/A   Overcast
3:56 PM 66.2 °F 57.2 °F 73% 30.14 in 10.0 mi NNE 10.4 mph 16.1 mph N/A   Mostly Cloudy
4:16 PM 68.0 °F 53.6 °F 60% 30.14 in 10.0 mi NNE 10.4 mph 17.3 mph N/A   Mostly Cloudy
4:36 PM 68.0 °F 51.8 °F 56% 30.13 in 10.0 mi North 10.4 mph 16.1 mph N/A   Scattered Clouds
4:56 PM 68.0 °F 51.8 °F 56% 30.14 in 10.0 mi North 10.4 mph - N/A   Scattered Clouds
5:16 PM 66.2 °F 51.8 °F 60% 30.14 in 10.0 mi NNE 11.5 mph 19.6 mph N/A   Scattered Clouds
5:36 PM 66.2 °F 51.8 °F 60% 30.14 in 10.0 mi NNE 12.7 mph 17.3 mph N/A   Scattered Clouds
5:56 PM 66.2 °F 51.8 °F 60% 30.14 in 10.0 mi NNE 8.1 mph - N/A   Clear
6:16 PM 66.2 °F 51.8 °F 60% 30.14 in 10.0 mi NE 10.4 mph - N/A   Clear
6:36 PM 66.2 °F 51.8 °F 60% 30.14 in 10.0 mi NNE 8.1 mph - N/A   Clear
6:56 PM 64.4 °F 51.8 °F 64% 30.14 in 10.0 mi NNE 4.6 mph - N/A   Clear
7:16 PM 64.4 °F 51.8 °F 64% 30.14 in 10.0 mi NNE 3.5 mph - N/A   Clear
7:36 PM 62.6 °F 51.8 °F 68% 30.14 in 10.0 mi NNE 4.6 mph - N/A   Clear
7:56 PM 62.6 °F 51.8 °F 68% 30.14 in 10.0 mi NNE 4.6 mph - N/A   Clear
8:16 PM 60.8 °F 51.8 °F 72% 30.15 in 10.0 mi Calm Calm - N/A   Clear
8:36 PM 57.2 °F 53.6 °F 88% 30.14 in 10.0 mi Calm Calm - N/A   Clear
8:56 PM 57.2 °F 53.6 °F 88% 30.14 in 10.0 mi Calm Calm - N/A   Clear
9:16 PM 55.4 °F 51.8 °F 88% 30.15 in 10.0 mi Calm Calm - N/A   Clear
9:36 PM 53.6 °F 51.8 °F 94% 30.15 in 10.0 mi Calm Calm - N/A   Clear
9:56 PM 51.8 °F 51.8 °F 100% 30.15 in 10.0 mi Calm Calm - N/A   Clear
10:16 PM 51.8 °F 51.8 °F 100% 30.15 in 10.0 mi Calm Calm - N/A   Clear
10:36 PM 50.0 °F 50.0 °F 100% 30.14 in 10.0 mi Calm Calm - N/A   Clear
10:56 PM 50.0 °F 48.2 °F 94% 30.14 in 10.0 mi Calm Calm - N/A   Clear
11:16 PM 50.0 °F 50.0 °F 100% 30.14 in 10.0 mi Calm Calm - N/A   Clear
11:36 PM 48.2 °F 48.2 °F 100% 30.14 in 10.0 mi Calm Calm - N/A   Clear
11:56 PM 48.2 °F 48.2 °F 100% 30.13 in 3.0 mi Calm Calm - N/A   Clear